Location: Absher
(46.5583°N, 107.9840°W)
Time: 22:48:33
(UTC+00:00)

SEEDS - Visible Passes

Search period start: 22 March 2023 00:00
Search period end: 01 April 2023 00:00
Orbit: 573 x 589 km, 97.6° (Epoch: 21 March)

Date Brightness Start Highest point End Pass type
(mag) Time Alt. Az. Time Alt. Az. Time Alt. Az.
22 Mar ? 10:03:48 10° ENE 10:06:03 14° E 10:08:04 11° ESE visible
22 Mar ? 11:37:40 10° N 11:41:46 58° WNW 11:44:26 21° SSW visible
23 Mar ? 10:08:44 10° NE 10:11:21 16° E 10:13:32 11° SE visible
23 Mar ? 11:42:56 10° N 11:46:59 51° WNW 11:49:53 18° SW visible
24 Mar ? 10:13:44 10° NE 10:16:37 18° E 10:18:58 12° SE visible
24 Mar ? 11:48:12 10° N 11:52:11 45° WNW 11:55:20 15° SW visible
25 Mar ? 10:18:44 10° NE 10:21:52 20° E 10:24:24 13° SE visible
25 Mar ? 11:53:27 10° N 11:57:22 40° WNW 12:00:46 13° SW visible
26 Mar ? 10:23:45 10° NE 10:27:06 23° E 10:29:48 13° SE visible
26 Mar ? 11:58:43 10° N 12:02:31 35° WNW 12:06:10 11° SW visible
27 Mar ? 10:28:48 10° NE 10:32:18 26° E 10:35:11 13° SE visible
27 Mar ? 12:03:57 10° N 12:07:40 31° WNW 12:11:21 10° SW visible
28 Mar ? 10:33:50 10° NE 10:37:29 29° E 10:40:33 13° SSE visible
28 Mar ? 12:09:12 10° N 12:12:46 28° WNW 12:16:20 10° SW visible
29 Mar ? 10:38:52 10° NNE 10:42:39 32° E 10:45:54 13° SSE visible
29 Mar ? 12:14:25 10° N 12:17:52 25° WNW 12:21:17 10° WSW visible
30 Mar ? 10:43:54 10° NNE 10:47:47 37° E 10:51:13 12° SSE visible
30 Mar ? 12:19:39 10° NNW 12:22:56 23° WNW 12:26:11 10° WSW visible
31 Mar ? 10:48:55 10° NNE 10:52:54 42° E 10:56:31 12° SSE visible
